LiveATC.Net - Listen to live air traffic control over the Internet!


ICAO: W05  IATA: W05   Airport: Gettysburg Regional Airport
City: Gettysburg   State/Province: Pennsylvania
Country: United States   Continent: North America
KHGR METAR Weather: KHGR 231753Z VRB03KT 10SM CLR 04/M16 A3057 RMK AO2 SLP370 T00441156 10044 21050 58017
W05 Flight Activity (FlightAware)
W05 CTAF
Feed Status: UP   Listeners: 0
Listen right in your browser - requires Flash (in browser, requires Flash)
Click here to listen with your own player (launches your MP3 player)
W05 CTAF Audio Archives
FacilityFrequency
Gettysburg CTAF122.900


NOTICE

Unauthorized use prohibited. See LiveATC.net Terms of Service


Find LiveATC Audio Streams


Airport/ARTCC Code

Frequency Search
(e.g., 124.400, 128.75)
Site-wide search
 


Browse LiveATC Feeds
LiveATC Coverage Map
Top 50 LiveATC Feeds
Bad Weather Areas

LiveATC FAQ
Offer a LiveATC Feed
Contact LiveATC.net
Press Inquiries

LiveATC on iPhone
LiveATC on Android

Windows Phone
Windows 8/10

LiveATC Mobile
(Mobile browser)

ATC Audio Archives
Interesting Recordings

LiveATC Forums


Home Page
About LiveATC.net
Make a Donation
LiveATC Store

Terms of Use
Privacy Policy

Canadian Air Freqs

AIRMETs/SIGMETs

FAA Airport Status
Nat'l Airspace Status
Arrival Demand Charts


Server Software By:
Icecast.org
Liquidsoap